Regional Weather Roundup
Issued by NWS

Home | Current Version | Previous Version | Graphics & Text | Print | Product List | Glossary Off
Versions: 1 2 3 4 5 6 7 8 9 10 11 12 13 14 15 16 17 18 19 20 21 22 23 24 25 26 27 28 29 30 31 32 33 34 35 36 37 38 39 40 41 42 43 44 45 46 47 48 49 50

000
ASUS43 KMKX 021503
RWRWI

WISCONSIN REGIONAL WEATHER ROUNDUP
NATIONAL WEATHER SERVICE MILWAUKEE/SULLIVAN WI
1000 AM CDT TUE JUN 02 2015

NOTE: "FAIR" INDICATES FEW OR NO CLOUDS BELOW 12,000 FEET WITH NO
SIGNIFICANT WEATHER AND/OR OBSTRUCTIONS TO VISIBILITY.

WIZ001-002-006>008-014>016-023>028-021600-
NORTHWEST WISCONSIN

CITY           SKY/WX    TMP DP  RH WIND       PRES   REMARKS
SUPERIOR ARPT  MOSUNNY   51  40  67 NE6       30.07F
ASHLAND        PTSUNNY   65  42  43 S14       30.09
HAYWARD        SUNNY     63  42  46 S13       30.11F
SIREN          SUNNY     65  47  52 S12       30.08F
CUMBERLAND     SUNNY     61  45  55 S12       30.10F
RICE LAKE      SUNNY     62  42  47 SE10G16   30.13F
CHETEK         SUNNY     62  45  54 S8        30.13F
LADYSMITH      SUNNY     61  41  48 S7        30.16F
EAU CLAIRE     NOT AVBL
MENOMONIE      SUNNY     63  46  54 SE9       30.12F
NEW RICHMOND   MOSUNNY   64  49  60 S10       30.09F
OSCEOLA        MOSUNNY   64  50  59 S13       30.11F
$$

WIZ003>005-009-010-017-018-021600-
NORTH CENTRAL WISCONSIN

CITY           SKY/WX    TMP DP  RH WIND       PRES   REMARKS
MANITOWISH WTR PTSUNNY   58  39  49 S8        30.15F
ARBOR VITAE    MOSUNNY   59  39  47 SW10      30.16S
WOODRUFF       MOSUNNY   59  39  47 SW10      30.16S
RHINELANDER    MOSUNNY   60  35  39 S9        30.17F
EAGLE RIVER    PTSUNNY   57  36  45 S6        30.16F
LAND O LAKES   PTSUNNY   60  36  41 S7        30.17F
PHILLIPS       SUNNY     59  38  46 S8        30.14F
TOMAHAWK       SUNNY     59  40  49 S5        30.17F
MEDFORD        SUNNY     56  41  56 S8        30.17F
MERRILL        NOT AVBL
$$

WIZ029-030-035-036-043>047-021600-
CENTRAL WISCONSIN

CITY           SKY/WX    TMP DP  RH WIND       PRES   REMARKS
WAUSAU         SUNNY     59  41  51 S8        30.16F
MOSINEE        NOT AVBL
MARSHFIELD     SUNNY     60  38  43 S12       30.17F
STEVENS POINT  SUNNY     59  40  50 S9        30.19F
WAUPACA        SUNNY     63  40  43 SE6       30.20F
WAUTOMA        NOT AVBL
WISC RAPIDS    SUNNY     63  38  39 S10       30.18F
CAMP DOUGLAS   NOT AVBL
$$

WIZ011>013-019>022-031-037>040-048>050-021600-
NORTHEAST WISCONSIN

CITY           SKY/WX    TMP DP  RH WIND       PRES   REMARKS
ANTIGO         SUNNY     57  40  53 S12       30.19F
SHAWANO        SUNNY     62  41  45 S5        30.20F
OCONTO         MOSUNNY   60  43  53 S5        30.20F
STURGEON BAY   MOSUNNY   61  39  44 S3        30.23F
GREEN BAY      SUNNY     63  43  48 SE3       30.20F
MANITOWOC      NOT AVBL
APPLETON       MOSUNNY   63  37  39 SE9       30.21F
CLINTONVILLE   SUNNY     61  41  48 S8        30.20F
OSHKOSH        SUNNY     63  42  46 VRB5      30.19F
$$

WIZ032>034-041-042-053>061-021600-
SOUTHWEST WISCONSIN

CITY           SKY/WX    TMP DP  RH WIND       PRES   REMARKS
LA CROSSE      SUNNY     64  46  52 S10       30.14F
SPARTA         SUNNY     63  42  47 S7        30.18S
VIROQUA        SUNNY     60  44  56 SE7       30.18S
BOSCOBEL       SUNNY     65  48  54 VRB3      30.17F
PRAIRIE DU CHI SUNNY     60  46  59 E6        30.16F
PLATTEVILLE    CLOUDY    59  46  62 S7        30.18F
$$

WIZ056-057-062-063-064-067-068-021600-
SOUTH CENTRAL WISCONSIN

CITY           SKY/WX    TMP DP  RH WIND       PRES   REMARKS
REEDSBURG      SUNNY     60  42  51 S7        30.18F
BARABOO/DELLS  SUNNY     60  42  51 SW9       30.19F
LONE ROCK      NOT AVBL
MINERAL POINT  SUNNY     61  45  55 S7        30.19F
MADISON        MOSUNNY   62  42  47 S7        30.18F
MIDDLETON      SUNNY     63  42  45 E6        30.20S
WATERTOWN      SUNNY     62  47  57 SE3       30.19F
MONROE         SUNNY     59  43  55 S8        30.19F
JANESVILLE     SUNNY     63  45  51 SE8       30.18F
$$

WIZ051-052-058>065-066-070>072-021600-
SOUTHEAST WISCONSIN

CITY           SKY/WX    TMP DP  RH WIND       PRES   REMARKS
MILWAUKEE      MOSUNNY   60  43  53 E5        30.21F
WAUKESHA       SUNNY     59  39  47 CALM      30.21F
MILWAUKEE/TIMM SUNNY     61  39  44 CALM      30.22F
RACINE         SUNNY     59  44  57 E5        30.22F
BURLINGTON     SUNNY     59  45  59 E5        30.19F
KENOSHA        SUNNY     60  47  61 E6        30.20F
FOND DU LAC    SUNNY     64  43  46 SE6       30.19F
SHEBOYGAN      SUNNY     62  45  53 S5        30.21F
WEST BEND      SUNNY     63  41  45 E3        30.21F
JUNEAU         SUNNY     61  43  52 SE8       30.21F
$$

LSZ147-162-021600-
LAKE SUPERIOR

STATION/POSITION TIME  TEMP    WIND        PRES    WAVE
                       AIR SEA DIR/SP/G            HT/PER
                 (UTC) (F)     (DEG/KT/KT) (MB)    (FT/S)
W MID LAKE BUOY  1350   42 37  140/  8/  8   N/A     1
DEVILS ISLAND    1400   56     190/  8/ 12   N/A
PORT WING        1400   45      30/  7/  8   N/A
SAXON HARBOR     1400   62     200/  6/ 12   N/A
$$

LMZ867-665-643>646-021600-
LAKE MICHIGAN

STATION/POSITION TIME  TEMP    WIND        PRES    WAVE
                       AIR SEA DIR/SP/G            HT/PER
                 (UTC) (F)     (DEG/KT/KT) (MB)    (FT/S)
CHAMBERS ISLAND  1300   58     350/  3/  3   N/A
N MID LAKE BUOY  1350   41 37  180/  2/  4   N/A     0
NORTHPORT PIER   1400   49     130/ 10/ 12   N/A
SISTER BAY       1418   56     340/  6/  7   N/A
ALGOMA LAKESHORE 1309             CALM       N/A
KEWAUNEE LAKESHO 1400   47     130/  2/  5   N/A
SHEBOYGAN LAKESH 1400   47     120/  3/  3   N/A
PORT WASHINGTON  1440   51      60/  3/  5   N/A
ATWATER BUOY     1400   46      10/  4/  4   N/A
MILWAUKEE LAKESH 1400   47      50/  5/  5   N/A
S MID LAKE BUOY  1350   43 38  100/  6/  6   N/A     1
KENOSHA   LAKESH 1400   49      40/  4/  4   N/A
$$

TC  - TEMPERATURE IN CELSIUS
VSB - VISIBILITY IN STATUTE MILES
WCI - WIND CHILL INDEX
HX  - HEAT INDEX




USA.gov is the U.S. government's official web portal to all federal, state and local government web resources and services.